Time,TemperatureF,DewpointF,PressureIn,WindDirection,WindDirectionDegrees,WindSpeedMPH,WindSpeedGustMPH,Humidity,HourlyPrecipIn,Conditions,Clouds,dailyrainin,SoftwareType,DateUTC
2013-08-29 00:00:00,74.6,73.4,30.02,North,32767,0.0,0.0,96,0.00,,,0.00,Wunderground v.1.15,2013-08-29 05:00:00,
2013-08-29 00:05:00,74.5,73.3,30.02,North,32767,0.0,0.0,96,0.00,,,0.00,Wunderground v.1.15,2013-08-29 05:05:00,
2013-08-29 00:10:00,74.4,73.2,30.02,North,32767,0.0,0.0,96,0.00,,,0.00,Wunderground v.1.15,2013-08-29 05:10:00,
2013-08-29 00:15:00,74.4,73.2,30.02,North,32767,0.0,0.0,96,0.00,,,0.00,Wunderground v.1.15,2013-08-29 05:15:00,
2013-08-29 00:20:00,74.3,73.1,30.02,North,32767,0.0,0.0,96,0.00,,,0.00,Wunderground v.1.15,2013-08-29 05:20:00,
2013-08-29 00:25:00,74.3,73.1,30.02,North,32767,0.0,0.0,96,0.00,,,0.00,Wunderground v.1.15,2013-08-29 05:25:00,
2013-08-29 00:30:00,74.2,73.0,30.02,North,32767,0.0,0.0,96,0.00,,,0.00,Wunderground v.1.15,2013-08-29 05:30:00,
2013-08-29 00:35:00,74.0,72.8,30.02,North,32767,0.0,0.0,96,0.00,,,0.00,Wunderground v.1.15,2013-08-29 05:35:00,
2013-08-29 00:40:00,73.9,72.7,30.02,North,32767,0.0,0.0,96,0.00,,,0.00,Wunderground v.1.15,2013-08-29 05:40:00,
2013-08-29 00:45:00,73.8,72.9,30.02,North,32767,0.0,0.0,97,0.00,,,0.00,Wunderground v.1.15,2013-08-29 05:45:00,
2013-08-29 01:35:00,72.8,72.2,30.01,North,32767,0.0,0.0,98,0.00,,,0.00,Wunderground v.1.15,2013-08-29 06:35:00,
2013-08-29 01:40:00,72.7,72.1,30.01,North,32767,0.0,0.0,98,0.00,,,0.00,Wunderground v.1.15,2013-08-29 06:40:00,
2013-08-29 01:45:00,72.7,72.1,30.01,North,32767,0.0,0.0,98,0.00,,,0.00,Wunderground v.1.15,2013-08-29 06:45:00,
2013-08-29 01:50:00,72.5,71.9,30.01,North,32767,0.0,0.0,98,0.00,,,0.00,Wunderground v.1.15,2013-08-29 06:50:00,
2013-08-29 01:55:00,72.5,71.9,30.01,North,32767,0.0,0.0,98,0.00,,,0.00,Wunderground v.1.15,2013-08-29 06:55:00,
2013-08-29 02:05:00,72.3,71.7,30.01,North,32767,0.0,0.0,98,0.00,,,0.00,Wunderground v.1.15,2013-08-29 07:05:00,
2013-08-29 02:10:00,72.2,71.6,30.01,North,32767,0.0,0.0,98,0.00,,,0.00,Wunderground v.1.15,2013-08-29 07:10:00,
2013-08-29 02:15:00,72.2,71.6,30.01,North,32767,0.0,0.0,98,0.00,,,0.00,Wunderground v.1.15,2013-08-29 07:15:00,
2013-08-29 02:20:00,72.1,71.5,30.01,North,32767,0.0,0.0,98,0.00,,,0.00,Wunderground v.1.15,2013-08-29 07:20:00,
2013-08-29 02:25:00,72.1,71.5,30.01,North,32767,0.0,0.0,98,0.00,,,0.00,Wunderground v.1.15,2013-08-29 07:25:00,
2013-08-29 02:30:00,72.0,71.4,30.01,North,32767,0.0,0.0,98,0.00,,,0.00,Wunderground v.1.15,2013-08-29 07:30:00,
2013-08-29 02:35:00,72.0,71.4,30.01,North,32767,0.0,0.0,98,0.00,,,0.00,Wunderground v.1.15,2013-08-29 07:35:00,
2013-08-29 02:40:00,72.0,71.7,30.01,North,32767,0.0,0.0,99,0.00,,,0.00,Wunderground v.1.15,2013-08-29 07:40:00,
2013-08-29 02:45:00,72.0,71.7,30.01,North,32767,0.0,0.0,99,0.00,,,0.00,Wunderground v.1.15,2013-08-29 07:45:00,
2013-08-29 02:50:00,71.9,71.6,30.01,North,32767,0.0,0.0,99,0.00,,,0.00,Wunderground v.1.15,2013-08-29 07:50:00,
2013-08-29 02:55:00,71.9,71.6,30.01,North,32767,0.0,0.0,99,0.00,,,0.00,Wunderground v.1.15,2013-08-29 07:55:00,
2013-08-29 03:00:00,71.8,71.5,30.01,North,32767,0.0,0.0,99,0.00,,,0.00,Wunderground v.1.15,2013-08-29 08:00:00,
2013-08-29 03:05:00,71.8,71.5,30.01,North,32767,0.0,0.0,99,0.00,,,0.00,Wunderground v.1.15,2013-08-29 08:05:00,
2013-08-29 03:10:00,71.7,71.4,30.01,North,32767,0.0,0.0,99,0.00,,,0.00,Wunderground v.1.15,2013-08-29 08:10:00,
2013-08-29 03:15:00,71.6,71.3,30.01,North,32767,0.0,0.0,99,0.00,,,0.00,Wunderground v.1.15,2013-08-29 08:15:00,
2013-08-29 03:20:00,71.5,71.2,30.01,North,32767,0.0,0.0,99,0.00,,,0.00,Wunderground v.1.15,2013-08-29 08:20:00,
2013-08-29 03:25:00,71.5,71.2,30.01,North,32767,0.0,0.0,99,0.00,,,0.00,Wunderground v.1.15,2013-08-29 08:25:00,
2013-08-29 03:30:00,71.4,71.1,30.01,North,32767,0.0,0.0,99,0.00,,,0.00,Wunderground v.1.15,2013-08-29 08:30:00,
2013-08-29 03:35:00,71.3,71.0,30.01,North,32767,0.0,0.0,99,0.00,,,0.00,Wunderground v.1.15,2013-08-29 08:35:00,
2013-08-29 03:40:00,71.2,70.9,30.01,North,32767,0.0,0.0,99,0.00,,,0.00,Wunderground v.1.15,2013-08-29 08:40:00,
2013-08-29 03:45:00,71.2,70.9,30.01,North,32767,0.0,0.0,99,0.00,,,0.00,Wunderground v.1.15,2013-08-29 08:45:00,
2013-08-29 03:50:00,71.1,70.8,30.01,North,32767,0.0,0.0,99,0.00,,,0.00,Wunderground v.1.15,2013-08-29 08:50:00,
2013-08-29 03:55:00,71.1,70.8,30.01,North,32767,0.0,0.0,99,0.00,,,0.00,Wunderground v.1.15,2013-08-29 08:55:00,
2013-08-29 04:00:00,71.1,70.8,30.01,North,32767,0.0,0.0,99,0.00,,,0.00,Wunderground v.1.15,2013-08-29 09:00:00,
2013-08-29 04:05:00,71.0,70.7,30.01,North,32767,0.0,0.0,99,0.00,,,0.00,Wunderground v.1.15,2013-08-29 09:05:00,
2013-08-29 04:10:00,71.0,70.7,30.01,North,32767,0.0,0.0,99,0.00,,,0.00,Wunderground v.1.15,2013-08-29 09:10:00,
2013-08-29 04:15:00,70.9,70.6,30.01,North,32767,0.0,0.0,99,0.00,,,0.00,Wunderground v.1.15,2013-08-29 09:15:00,
2013-08-29 04:20:00,70.8,70.5,30.01,North,32767,0.0,0.0,99,0.00,,,0.00,Wunderground v.1.15,2013-08-29 09:20:00,
2013-08-29 04:25:00,70.8,70.5,30.01,North,32767,0.0,0.0,99,0.00,,,0.00,Wunderground v.1.15,2013-08-29 09:25:00,
2013-08-29 04:30:00,70.7,70.4,30.01,North,32767,0.0,0.0,99,0.00,,,0.00,Wunderground v.1.15,2013-08-29 09:30:00,
2013-08-29 04:40:00,70.7,70.4,30.01,North,32767,0.0,0.0,99,0.00,,,0.00,Wunderground v.1.15,2013-08-29 09:40:00,
2013-08-29 04:45:00,70.7,70.4,30.01,North,32767,0.0,0.0,99,0.00,,,0.00,Wunderground v.1.15,2013-08-29 09:45:00,
2013-08-29 04:50:00,70.6,70.3,30.01,North,32767,0.0,0.0,99,0.00,,,0.00,Wunderground v.1.15,2013-08-29 09:50:00,
2013-08-29 04:55:00,70.6,70.3,30.01,North,32767,0.0,0.0,99,0.00,,,0.00,Wunderground v.1.15,2013-08-29 09:55:00,
2013-08-29 05:00:00,70.5,70.2,30.01,North,32767,0.0,0.0,99,0.00,,,0.00,Wunderground v.1.15,2013-08-29 10:00:00,
2013-08-29 05:05:00,70.5,70.2,30.01,North,32767,0.0,0.0,99,0.00,,,0.00,Wunderground v.1.15,2013-08-29 10:05:00,
2013-08-29 05:10:00,70.4,70.1,30.01,North,32767,0.0,0.0,99,0.00,,,0.00,Wunderground v.1.15,2013-08-29 10:10:00,
2013-08-29 05:15:00,70.4,70.1,30.02,North,32767,0.0,0.0,99,0.00,,,0.00,Wunderground v.1.15,2013-08-29 10:15:00,
2013-08-29 05:20:00,70.3,70.0,30.02,North,32767,0.0,0.0,99,0.00,,,0.00,Wunderground v.1.15,2013-08-29 10:20:00,
2013-08-29 05:25:00,70.3,70.0,30.02,North,32767,0.0,0.0,99,0.00,,,0.00,Wunderground v.1.15,2013-08-29 10:25:00,
2013-08-29 05:30:00,70.2,69.9,30.02,North,32767,0.0,0.0,99,0.00,,,0.00,Wunderground v.1.15,2013-08-29 10:30:00,
2013-08-29 05:35:00,70.2,69.9,30.02,North,32767,0.0,0.0,99,0.00,,,0.00,Wunderground v.1.15,2013-08-29 10:35:00,
2013-08-29 05:40:00,70.2,69.9,30.02,North,32767,0.0,0.0,99,0.00,,,0.00,Wunderground v.1.15,2013-08-29 10:40:00,
2013-08-29 05:45:00,70.1,69.8,30.02,North,32767,0.0,0.0,99,0.00,,,0.00,Wunderground v.1.15,2013-08-29 10:45:00,
2013-08-29 05:50:00,70.1,69.8,30.02,North,32767,0.0,0.0,99,0.00,,,0.00,Wunderground v.1.15,2013-08-29 10:50:00,
2013-08-29 05:55:00,70.1,69.8,30.02,North,32767,0.0,0.0,99,0.00,,,0.00,Wunderground v.1.15,2013-08-29 10:55:00,
2013-08-29 06:00:00,70.1,69.8,30.02,North,32767,0.0,0.0,99,0.00,,,0.00,Wunderground v.1.15,2013-08-29 11:00:00,
2013-08-29 06:05:00,70.1,69.8,30.02,North,32767,0.0,0.0,99,0.00,,,0.00,Wunderground v.1.15,2013-08-29 11:05:00,
2013-08-29 06:10:00,70.0,69.7,30.02,North,32767,0.0,0.0,99,0.00,,,0.00,Wunderground v.1.15,2013-08-29 11:10:00,
2013-08-29 06:15:00,70.0,69.7,30.02,North,32767,0.0,0.0,99,0.00,,,0.00,Wunderground v.1.15,2013-08-29 11:15:00,
2013-08-29 06:20:00,70.0,69.7,30.02,North,32767,0.0,0.0,99,0.00,,,0.00,Wunderground v.1.15,2013-08-29 11:20:00,
2013-08-29 06:25:00,69.9,69.6,30.03,North,32767,0.0,0.0,99,0.00,,,0.00,Wunderground v.1.15,2013-08-29 11:25:00,
2013-08-29 06:30:00,70.0,69.7,30.03,North,32767,0.0,0.0,99,0.00,,,0.00,Wunderground v.1.15,2013-08-29 11:30:00,
2013-08-29 06:35:00,69.9,69.6,30.03,North,32767,0.0,0.0,99,0.00,,,0.00,Wunderground v.1.15,2013-08-29 11:35:00,
2013-08-29 06:40:00,69.9,69.6,30.03,North,32767,0.0,0.0,99,0.00,,,0.00,Wunderground v.1.15,2013-08-29 11:40:00,
2013-08-29 06:45:00,69.9,69.6,30.03,North,32767,0.0,0.0,99,0.00,,,0.00,Wunderground v.1.15,2013-08-29 11:45:00,
2013-08-29 06:50:00,69.9,69.6,30.04,North,32767,0.0,0.0,99,0.00,,,0.00,Wunderground v.1.15,2013-08-29 11:50:00,
2013-08-29 06:55:00,70.0,69.7,30.04,North,32767,0.0,0.0,99,0.00,,,0.00,Wunderground v.1.15,2013-08-29 11:55:00,
2013-08-29 07:00:00,70.1,69.8,30.04,North,32767,0.0,0.0,99,0.00,,,0.00,Wunderground v.1.15,2013-08-29 12:00:00,
2013-08-29 07:05:00,70.3,70.0,30.04,North,32767,0.0,0.0,99,0.00,,,0.00,Wunderground v.1.15,2013-08-29 12:05:00,
2013-08-29 07:10:00,70.5,70.2,30.04,North,32767,0.0,0.0,99,0.00,,,0.00,Wunderground v.1.15,2013-08-29 12:10:00,
2013-08-29 07:15:00,70.8,70.5,30.04,North,32767,0.0,0.0,99,0.00,,,0.00,Wunderground v.1.15,2013-08-29 12:15:00,
2013-08-29 07:20:00,71.1,70.8,30.05,North,32767,0.0,0.0,99,0.00,,,0.00,Wunderground v.1.15,2013-08-29 12:20:00,
2013-08-29 07:25:00,71.7,71.4,30.05,North,32767,0.0,0.0,99,0.00,,,0.00,Wunderground v.1.15,2013-08-29 12:25:00,
2013-08-29 07:30:00,72.4,72.1,30.05,North,32767,0.0,0.0,99,0.00,,,0.00,Wunderground v.1.15,2013-08-29 12:30:00,
2013-08-29 07:35:00,72.9,72.6,30.05,North,32767,0.0,0.0,99,0.00,,,0.00,Wunderground v.1.15,2013-08-29 12:35:00,
2013-08-29 07:40:00,73.3,73.0,30.05,North,32767,0.0,0.0,99,0.00,,,0.00,Wunderground v.1.15,2013-08-29 12:40:00,
2013-08-29 07:45:00,73.9,73.6,30.05,North,32767,0.0,0.0,99,0.00,,,0.00,Wunderground v.1.15,2013-08-29 12:45:00,
2013-08-29 07:50:00,74.4,74.1,30.05,North,32767,0.0,0.0,99,0.00,,,0.00,Wunderground v.1.15,2013-08-29 12:50:00,
2013-08-29 07:55:00,74.9,74.6,30.05,North,32767,0.0,0.0,99,0.00,,,0.00,Wunderground v.1.15,2013-08-29 12:55:00,
2013-08-29 08:00:00,75.6,75.3,30.05,North,32767,0.0,0.0,99,0.00,,,0.00,Wunderground v.1.15,2013-08-29 13:00:00,
2013-08-29 08:05:00,76.3,75.7,30.05,North,32767,0.0,0.0,98,0.00,,,0.00,Wunderground v.1.15,2013-08-29 13:05:00,
2013-08-29 08:10:00,76.7,75.5,30.05,North,32767,0.0,0.0,96,0.00,,,0.00,Wunderground v.1.15,2013-08-29 13:10:00,
2013-08-29 08:15:00,77.1,75.6,30.05,North,32767,0.0,0.0,95,0.00,,,0.00,Wunderground v.1.15,2013-08-29 13:15:00,
2013-08-29 08:20:00,77.5,76.0,30.05,North,32767,0.0,0.0,95,0.00,,,0.00,Wunderground v.1.15,2013-08-29 13:20:00,
2013-08-29 08:25:00,77.9,76.0,30.05,North,32767,0.0,0.0,94,0.00,,,0.00,Wunderground v.1.15,2013-08-29 13:25:00,
2013-08-29 08:30:00,78.3,76.4,30.05,North,32767,0.0,0.0,94,0.00,,,0.00,Wunderground v.1.15,2013-08-29 13:30:00,
2013-08-29 08:35:00,78.5,76.3,30.05,North,32767,0.0,0.0,93,0.00,,,0.00,Wunderground v.1.15,2013-08-29 13:35:00,
2013-08-29 08:40:00,78.8,76.6,30.05,North,32767,0.0,0.0,93,0.00,,,0.00,Wunderground v.1.15,2013-08-29 13:40:00,
2013-08-29 08:45:00,79.2,76.7,30.06,North,32767,0.0,0.0,92,0.00,,,0.00,Wunderground v.1.15,2013-08-29 13:45:00,
2013-08-29 08:50:00,79.5,76.6,30.05,North,32767,0.0,0.0,91,0.00,,,0.00,Wunderground v.1.15,2013-08-29 13:50:00,
2013-08-29 08:55:00,79.7,76.2,30.05,North,32767,0.0,0.0,89,0.00,,,0.00,Wunderground v.1.15,2013-08-29 13:55:00,
2013-08-29 09:00:00,79.8,75.9,30.05,North,32767,0.0,0.0,88,0.00,,,0.00,Wunderground v.1.15,2013-08-29 14:00:00,
2013-08-29 09:05:00,80.0,76.1,30.06,North,32767,0.0,0.0,88,0.00,,,0.00,Wunderground v.1.15,2013-08-29 14:05:00,
2013-08-29 09:10:00,80.1,75.9,30.06,North,32767,0.0,0.0,87,0.00,,,0.00,Wunderground v.1.15,2013-08-29 14:10:00,
2013-08-29 09:15:00,80.4,76.9,30.05,North,32767,0.0,0.0,89,0.00,,,0.00,Wunderground v.1.15,2013-08-29 14:15:00,
2013-08-29 09:20:00,80.8,76.9,30.06,North,32767,0.0,0.0,88,0.00,,,0.00,Wunderground v.1.15,2013-08-29 14:20:00,
2013-08-29 09:25:00,81.3,77.1,30.06,North,32767,0.0,0.0,87,0.00,,,0.00,Wunderground v.1.15,2013-08-29 14:25:00,
2013-08-29 09:30:00,81.8,76.8,30.06,North,32767,0.0,0.0,85,0.00,,,0.00,Wunderground v.1.15,2013-08-29 14:30:00,
2013-08-29 09:35:00,82.1,76.1,30.06,North,32767,0.0,0.0,82,0.00,,,0.00,Wunderground v.1.15,2013-08-29 14:35:00,
2013-08-29 09:40:00,82.3,76.6,30.06,North,32767,0.0,0.0,83,0.00,,,0.00,Wunderground v.1.15,2013-08-29 14:40:00,
2013-08-29 09:45:00,82.5,76.8,30.06,North,32767,0.0,0.0,83,0.00,,,0.00,Wunderground v.1.15,2013-08-29 14:45:00,
2013-08-29 09:50:00,82.9,77.2,30.06,North,32767,0.0,0.0,83,0.00,,,0.00,Wunderground v.1.15,2013-08-29 14:50:00,
2013-08-29 09:55:00,83.3,77.6,30.06,North,32767,0.0,0.0,83,0.00,,,0.00,Wunderground v.1.15,2013-08-29 14:55:00,
2013-08-29 10:00:00,83.6,76.8,30.06,North,32767,0.0,0.0,80,0.00,,,0.00,Wunderground v.1.15,2013-08-29 15:00:00,
2013-08-29 10:05:00,84.0,77.5,30.06,North,32767,0.0,0.0,81,0.00,,,0.00,Wunderground v.1.15,2013-08-29 15:05:00,
2013-08-29 10:10:00,84.4,77.6,30.06,North,32767,0.0,0.0,80,0.00,,,0.00,Wunderground v.1.15,2013-08-29 15:10:00,
2013-08-29 10:15:00,84.8,77.2,30.06,North,32767,0.0,0.0,78,0.00,,,0.00,Wunderground v.1.15,2013-08-29 15:15:00,
2013-08-29 10:20:00,85.4,78.1,30.06,North,32767,0.0,0.0,79,0.00,,,0.00,Wunderground v.1.15,2013-08-29 15:20:00,
2013-08-29 10:25:00,85.9,79.4,30.06,North,32767,0.0,0.0,81,0.00,,,0.00,Wunderground v.1.15,2013-08-29 15:25:00,
2013-08-29 10:35:00,86.4,79.1,30.06,North,32767,0.0,0.0,79,0.00,,,0.00,Wunderground v.1.15,2013-08-29 15:35:00,
2013-08-29 10:40:00,86.7,79.0,30.06,North,32767,0.0,0.0,78,0.00,,,0.00,Wunderground v.1.15,2013-08-29 15:40:00,
2013-08-29 10:45:00,87.2,79.9,30.06,North,32767,0.0,0.0,79,0.00,,,0.00,Wunderground v.1.15,2013-08-29 15:45:00,
2013-08-29 10:50:00,87.5,79.8,30.06,North,32767,0.0,0.0,78,0.00,,,0.00,Wunderground v.1.15,2013-08-29 15:50:00,
2013-08-29 10:55:00,87.6,79.5,30.06,North,32767,0.0,0.0,77,0.00,,,0.00,Wunderground v.1.15,2013-08-29 15:55:00,
2013-08-29 11:00:00,87.7,79.6,30.06,North,32767,0.0,0.0,77,0.00,,,0.00,Wunderground v.1.15,2013-08-29 16:00:00,
2013-08-29 11:05:00,87.6,79.9,30.05,North,32767,0.0,0.0,78,0.00,,,0.00,Wunderground v.1.15,2013-08-29 16:05:00,
2013-08-29 11:10:00,87.8,79.7,30.06,North,32767,0.0,0.0,77,0.00,,,0.00,Wunderground v.1.15,2013-08-29 16:10:00,
2013-08-29 11:15:00,87.5,79.0,30.06,North,32767,0.0,0.0,76,0.00,,,0.00,Wunderground v.1.15,2013-08-29 16:15:00,
2013-08-29 11:20:00,87.3,79.6,30.06,North,32767,0.0,0.0,78,0.00,,,0.00,Wunderground v.1.15,2013-08-29 16:20:00,
2013-08-29 11:25:00,87.3,78.8,30.05,North,32767,0.0,0.0,76,0.00,,,0.00,Wunderground v.1.15,2013-08-29 16:25:00,
2013-08-29 11:30:00,87.4,79.7,30.05,North,32767,0.0,0.0,78,0.00,,,0.00,Wunderground v.1.15,2013-08-29 16:30:00,
2013-08-29 11:35:00,87.7,79.2,30.06,North,32767,0.0,0.0,76,0.00,,,0.00,Wunderground v.1.15,2013-08-29 16:35:00,
2013-08-29 11:45:00,87.9,79.0,30.05,North,32767,0.0,0.0,75,0.00,,,0.00,Wunderground v.1.15,2013-08-29 16:45:00,
2013-08-29 11:50:00,87.9,78.6,30.05,North,32767,0.0,0.0,74,0.00,,,0.00,Wunderground v.1.15,2013-08-29 16:50:00,
2013-08-29 11:55:00,87.9,78.2,30.05,North,32767,0.0,0.0,73,0.00,,,0.00,Wunderground v.1.15,2013-08-29 16:55:00,
2013-08-29 12:00:00,87.9,78.6,30.05,North,32767,0.0,0.0,74,0.00,,,0.00,Wunderground v.1.15,2013-08-29 17:00:00,
2013-08-29 12:05:00,87.6,77.9,30.05,North,32767,0.0,0.0,73,0.00,,,0.00,Wunderground v.1.15,2013-08-29 17:05:00,
2013-08-29 12:15:00,87.9,78.6,30.05,North,32767,0.0,0.0,74,0.00,,,0.00,Wunderground v.1.15,2013-08-29 17:15:00,
2013-08-29 12:20:00,88.1,78.3,30.05,North,32767,0.0,0.0,73,0.00,,,0.00,Wunderground v.1.15,2013-08-29 17:20:00,
2013-08-29 12:30:00,88.1,78.3,30.04,North,32767,0.0,0.0,73,0.00,,,0.00,Wunderground v.1.15,2013-08-29 17:30:00,
2013-08-29 12:35:00,88.1,78.3,30.04,North,32767,0.0,0.0,73,0.00,,,0.00,Wunderground v.1.15,2013-08-29 17:35:00,
2013-08-29 12:40:00,88.3,79.0,30.04,North,32767,0.0,0.0,74,0.00,,,0.00,Wunderground v.1.15,2013-08-29 17:40:00,
2013-08-29 12:45:00,88.5,78.7,30.03,North,32767,0.0,0.0,73,0.00,,,0.00,Wunderground v.1.15,2013-08-29 17:45:00,
2013-08-29 12:50:00,88.8,78.6,30.03,North,32767,0.0,0.0,72,0.00,,,0.00,Wunderground v.1.15,2013-08-29 17:50:00,
2013-08-29 13:00:00,88.8,78.2,30.03,North,32767,0.0,0.0,71,0.00,,,0.00,Wunderground v.1.15,2013-08-29 18:00:00,
2013-08-29 13:05:00,88.7,79.3,30.03,North,32767,0.0,0.0,74,0.00,,,0.00,Wunderground v.1.15,2013-08-29 18:05:00,
2013-08-29 13:10:00,88.6,77.6,30.03,North,32767,0.0,0.0,70,0.00,,,0.00,Wunderground v.1.15,2013-08-29 18:10:00,
2013-08-29 13:20:00,88.7,77.7,30.03,North,32767,0.0,0.0,70,0.00,,,0.00,Wunderground v.1.15,2013-08-29 18:20:00,
2013-08-29 13:25:00,88.3,76.8,30.03,North,32767,0.0,0.0,69,0.00,,,0.00,Wunderground v.1.15,2013-08-29 18:25:00,
2013-08-29 13:30:00,88.0,77.4,30.02,North,32767,0.0,0.0,71,0.00,,,0.00,Wunderground v.1.15,2013-08-29 18:30:00,
2013-08-29 13:35:00,88.1,77.5,30.02,North,32767,0.0,0.0,71,0.00,,,0.00,Wunderground v.1.15,2013-08-29 18:35:00,
2013-08-29 13:40:00,88.0,76.5,30.02,North,32767,0.0,0.0,69,0.00,,,0.00,Wunderground v.1.15,2013-08-29 18:40:00,
2013-08-29 13:45:00,88.2,76.3,30.01,North,32767,0.0,0.0,68,0.00,,,0.00,Wunderground v.1.15,2013-08-29 18:45:00,
2013-08-29 13:50:00,88.6,76.7,30.01,North,32767,0.0,0.0,68,0.00,,,0.00,Wunderground v.1.15,2013-08-29 18:50:00,
2013-08-29 13:55:00,89.0,76.6,30.01,North,32767,0.0,0.0,67,0.00,,,0.00,Wunderground v.1.15,2013-08-29 18:55:00,
2013-08-29 14:00:00,89.0,76.2,30.01,North,32767,0.0,0.0,66,0.00,,,0.00,Wunderground v.1.15,2013-08-29 19:00:00,
2013-08-29 14:05:00,89.3,77.3,30.01,North,32767,0.0,0.0,68,0.00,,,0.00,Wunderground v.1.15,2013-08-29 19:05:00,
2013-08-29 14:10:00,89.3,76.4,30.01,North,32767,0.0,0.0,66,0.00,,,0.00,Wunderground v.1.15,2013-08-29 19:10:00,
2013-08-29 14:15:00,89.4,76.5,30.01,North,32767,0.0,0.0,66,0.00,,,0.00,Wunderground v.1.15,2013-08-29 19:15:00,
2013-08-29 14:20:00,89.5,78.4,30.01,North,32767,0.0,0.0,70,0.00,,,0.00,Wunderground v.1.15,2013-08-29 19:20:00,
2013-08-29 14:25:00,89.9,77.9,30.00,North,32767,0.0,0.0,68,0.00,,,0.00,Wunderground v.1.15,2013-08-29 19:25:00,
2013-08-29 14:30:00,89.7,76.8,30.00,North,32767,0.0,0.0,66,0.00,,,0.00,Wunderground v.1.15,2013-08-29 19:30:00,
2013-08-29 14:40:00,89.5,77.1,30.00,North,32767,0.0,0.0,67,0.00,,,0.00,Wunderground v.1.15,2013-08-29 19:40:00,
2013-08-29 14:45:00,89.6,76.7,30.00,North,32767,0.0,0.0,66,0.00,,,0.00,Wunderground v.1.15,2013-08-29 19:45:00,
2013-08-29 14:50:00,89.5,77.5,29.99,North,32767,0.0,0.0,68,0.00,,,0.00,Wunderground v.1.15,2013-08-29 19:50:00,
2013-08-29 14:55:00,89.4,77.0,29.99,North,32767,0.0,0.0,67,0.00,,,0.00,Wunderground v.1.15,2013-08-29 19:55:00,
2013-08-29 15:00:00,89.6,78.1,29.99,North,32767,0.0,0.0,69,0.00,,,0.00,Wunderground v.1.15,2013-08-29 20:00:00,
2013-08-29 15:05:00,90.0,79.3,29.99,North,32767,0.0,0.0,71,0.00,,,0.00,Wunderground v.1.15,2013-08-29 20:05:00,
2013-08-29 15:10:00,89.8,78.3,29.99,North,32767,0.0,0.0,69,0.00,,,0.00,Wunderground v.1.15,2013-08-29 20:10:00,
2013-08-29 15:15:00,89.5,78.0,29.99,North,32767,0.0,0.0,69,0.00,,,0.00,Wunderground v.1.15,2013-08-29 20:15:00,
2013-08-29 15:20:00,89.2,76.4,29.99,North,32767,0.0,0.0,66,0.00,,,0.00,Wunderground v.1.15,2013-08-29 20:20:00,
2013-08-29 15:25:00,89.0,76.6,29.99,North,32767,0.0,0.0,67,0.00,,,0.00,Wunderground v.1.15,2013-08-29 20:25:00,
2013-08-29 15:30:00,88.9,77.4,29.98,North,32767,0.0,0.0,69,0.00,,,0.00,Wunderground v.1.15,2013-08-29 20:30:00,
2013-08-29 15:35:00,89.0,77.1,29.98,North,32767,0.0,0.0,68,0.00,,,0.00,Wunderground v.1.15,2013-08-29 20:35:00,
2013-08-29 15:40:00,88.9,76.5,29.98,North,32767,0.0,0.0,67,0.00,,,0.00,Wunderground v.1.15,2013-08-29 20:40:00,
2013-08-29 15:45:00,89.1,76.3,29.98,North,32767,0.0,0.0,66,0.00,,,0.00,Wunderground v.1.15,2013-08-29 20:45:00,
2013-08-29 15:55:00,88.7,76.3,29.98,North,32767,0.0,0.0,67,0.00,,,0.00,Wunderground v.1.15,2013-08-29 20:55:00,
2013-08-29 16:00:00,88.7,76.8,29.98,North,32767,0.0,0.0,68,0.00,,,0.00,Wunderground v.1.15,2013-08-29 21:00:00,
2013-08-29 16:05:00,89.0,76.6,29.98,North,32767,0.0,0.0,67,0.00,,,0.00,Wunderground v.1.15,2013-08-29 21:05:00,
2013-08-29 16:10:00,89.2,77.3,29.98,North,32767,0.0,0.0,68,0.00,,,0.00,Wunderground v.1.15,2013-08-29 21:10:00,
2013-08-29 16:15:00,89.7,77.7,29.97,North,32767,0.0,0.0,68,0.00,,,0.00,Wunderground v.1.15,2013-08-29 21:15:00,
2013-08-29 16:20:00,89.6,76.7,29.97,North,32767,0.0,0.0,66,0.00,,,0.00,Wunderground v.1.15,2013-08-29 21:20:00,
2013-08-29 16:25:00,89.3,75.5,29.97,North,32767,0.0,0.0,64,0.00,,,0.00,Wunderground v.1.15,2013-08-29 21:25:00,
2013-08-29 16:35:00,89.1,75.8,29.97,North,32767,0.0,0.0,65,0.00,,,0.00,Wunderground v.1.15,2013-08-29 21:35:00,
2013-08-29 16:40:00,88.8,76.4,29.97,North,32767,0.0,0.0,67,0.00,,,0.00,Wunderground v.1.15,2013-08-29 21:40:00,
2013-08-29 16:45:00,88.9,77.4,29.97,North,32767,0.0,0.0,69,0.00,,,0.00,Wunderground v.1.15,2013-08-29 21:45:00,
2013-08-29 16:50:00,89.0,76.2,29.97,North,32767,0.0,0.0,66,0.00,,,0.00,Wunderground v.1.15,2013-08-29 21:50:00,
2013-08-29 16:55:00,88.7,76.8,29.97,North,32767,0.0,0.0,68,0.00,,,0.00,Wunderground v.1.15,2013-08-29 21:55:00,
2013-08-29 17:00:00,88.6,76.2,29.97,North,32767,0.0,0.0,67,0.00,,,0.00,Wunderground v.1.15,2013-08-29 22:00:00,
2013-08-29 17:05:00,88.3,75.9,29.97,North,32767,0.0,0.0,67,0.00,,,0.00,Wunderground v.1.15,2013-08-29 22:05:00,
2013-08-29 17:15:00,87.9,76.5,29.97,North,32767,0.0,0.0,69,0.00,,,0.00,Wunderground v.1.15,2013-08-29 22:15:00,
2013-08-29 17:20:00,87.9,76.0,29.97,North,32767,0.0,0.0,68,0.00,,,0.00,Wunderground v.1.15,2013-08-29 22:20:00,
2013-08-29 17:25:00,87.7,75.8,29.97,North,32767,0.0,0.0,68,0.00,,,0.00,Wunderground v.1.15,2013-08-29 22:25:00,
2013-08-29 17:30:00,87.7,76.7,29.97,North,32767,0.0,0.0,70,0.00,,,0.00,Wunderground v.1.15,2013-08-29 22:30:00,
2013-08-29 17:35:00,87.8,76.4,29.97,North,32767,0.0,0.0,69,0.00,,,0.00,Wunderground v.1.15,2013-08-29 22:35:00,
2013-08-29 17:40:00,87.4,76.4,29.97,North,32767,0.0,0.0,70,0.00,,,0.00,Wunderground v.1.15,2013-08-29 22:40:00,
2013-08-29 17:45:00,86.6,75.6,29.97,North,32767,0.0,0.0,70,0.00,,,0.00,Wunderground v.1.15,2013-08-29 22:45:00,
2013-08-29 17:50:00,86.1,75.6,29.97,North,32767,0.0,0.0,71,0.00,,,0.00,Wunderground v.1.15,2013-08-29 22:50:00,
2013-08-29 17:55:00,85.6,75.1,29.97,North,32767,0.0,0.0,71,0.00,,,0.00,Wunderground v.1.15,2013-08-29 22:55:00,
2013-08-29 18:00:00,85.3,75.2,29.97,North,32767,0.0,0.0,72,0.00,,,0.00,Wunderground v.1.15,2013-08-29 23:00:00,
2013-08-29 18:05:00,85.0,75.8,29.97,North,32767,0.0,0.0,74,0.00,,,0.00,Wunderground v.1.15,2013-08-29 23:05:00,
2013-08-29 18:10:00,84.7,75.5,29.97,North,32767,0.0,0.0,74,0.00,,,0.00,Wunderground v.1.15,2013-08-29 23:10:00,
2013-08-29 18:15:00,84.5,75.3,29.97,North,32767,0.0,0.0,74,0.00,,,0.00,Wunderground v.1.15,2013-08-29 23:15:00,
2013-08-29 18:20:00,84.2,75.4,29.97,North,32767,0.0,0.0,75,0.00,,,0.00,Wunderground v.1.15,2013-08-29 23:20:00,
2013-08-29 18:25:00,84.1,75.3,29.97,North,32767,0.0,0.0,75,0.00,,,0.00,Wunderground v.1.15,2013-08-29 23:25:00,
2013-08-29 18:30:00,83.9,75.5,29.97,North,32767,0.0,0.0,76,0.00,,,0.00,Wunderground v.1.15,2013-08-29 23:30:00,
2013-08-29 18:35:00,83.7,75.3,29.97,North,32767,0.0,0.0,76,0.00,,,0.00,Wunderground v.1.15,2013-08-29 23:35:00,
2013-08-29 18:40:00,83.5,74.7,29.97,North,32767,0.0,0.0,75,0.00,,,0.00,Wunderground v.1.15,2013-08-29 23:40:00,
2013-08-29 18:45:00,83.4,75.0,29.97,North,32767,0.0,0.0,76,0.00,,,0.00,Wunderground v.1.15,2013-08-29 23:45:00,
2013-08-29 18:50:00,83.2,74.8,29.97,North,32767,0.0,0.0,76,0.00,,,0.00,Wunderground v.1.15,2013-08-29 23:50:00,
2013-08-29 18:55:00,83.1,74.7,29.97,North,32767,0.0,0.0,76,0.00,,,0.00,Wunderground v.1.15,2013-08-29 23:55:00,
2013-08-29 19:00:00,82.9,74.9,29.97,North,32767,0.0,0.0,77,0.00,,,0.00,Wunderground v.1.15,2013-08-30 00:00:00,
2013-08-29 19:05:00,82.8,75.6,29.97,North,32767,0.0,0.0,79,0.00,,,0.00,Wunderground v.1.15,2013-08-30 00:05:00,
2013-08-29 19:10:00,82.5,74.9,29.97,North,32767,0.0,0.0,78,0.00,,,0.00,Wunderground v.1.15,2013-08-30 00:10:00,
2013-08-29 19:15:00,82.3,75.1,29.98,North,32767,0.0,0.0,79,0.00,,,0.00,Wunderground v.1.15,2013-08-30 00:15:00,
2013-08-29 19:20:00,82.0,74.8,29.98,North,32767,0.0,0.0,79,0.00,,,0.00,Wunderground v.1.15,2013-08-30 00:20:00,
2013-08-29 19:25:00,81.9,75.1,29.98,North,32767,0.0,0.0,80,0.00,,,0.00,Wunderground v.1.15,2013-08-30 00:25:00,
2013-08-29 19:30:00,81.7,74.9,29.97,North,32767,0.0,0.0,80,0.00,,,0.00,Wunderground v.1.15,2013-08-30 00:30:00,
2013-08-29 19:35:00,81.6,75.6,29.98,North,32767,0.0,0.0,82,0.00,,,0.00,Wunderground v.1.15,2013-08-30 00:35:00,
2013-08-29 19:40:00,81.3,74.9,29.98,North,32767,0.0,0.0,81,0.00,,,0.00,Wunderground v.1.15,2013-08-30 00:40:00,
2013-08-29 19:45:00,81.1,75.1,29.98,North,32767,0.0,0.0,82,0.00,,,0.00,Wunderground v.1.15,2013-08-30 00:45:00,
2013-08-29 19:50:00,80.8,75.2,29.98,North,32767,0.0,0.0,83,0.00,,,0.00,Wunderground v.1.15,2013-08-30 00:50:00,
2013-08-29 19:55:00,80.6,74.6,29.98,North,32767,0.0,0.0,82,0.00,,,0.00,Wunderground v.1.15,2013-08-30 00:55:00,
2013-08-29 20:00:00,80.5,74.9,29.98,North,32767,0.0,0.0,83,0.00,,,0.00,Wunderground v.1.15,2013-08-30 01:00:00,
2013-08-29 20:05:00,80.4,74.8,29.98,North,32767,0.0,0.0,83,0.00,,,0.00,Wunderground v.1.15,2013-08-30 01:05:00,
2013-08-29 20:10:00,80.3,74.3,29.98,North,32767,0.0,0.0,82,0.00,,,0.00,Wunderground v.1.15,2013-08-30 01:10:00,
2013-08-29 20:15:00,80.3,74.7,29.98,North,32767,0.0,0.0,83,0.00,,,0.00,Wunderground v.1.15,2013-08-30 01:15:00,
2013-08-29 20:25:00,80.1,74.8,29.98,North,32767,0.0,0.0,84,0.00,,,0.00,Wunderground v.1.15,2013-08-30 01:25:00,
2013-08-29 20:30:00,79.9,75.0,29.98,North,32767,0.0,0.0,85,0.00,,,0.00,Wunderground v.1.15,2013-08-30 01:30:00,
2013-08-29 20:35:00,79.7,75.1,29.98,North,32767,0.0,0.0,86,0.00,,,0.00,Wunderground v.1.15,2013-08-30 01:35:00,
2013-08-29 20:40:00,79.5,75.3,29.98,North,32767,0.0,0.0,87,0.00,,,0.00,Wunderground v.1.15,2013-08-30 01:40:00,
2013-08-29 20:45:00,79.3,75.1,29.98,North,32767,0.0,0.0,87,0.00,,,0.00,Wunderground v.1.15,2013-08-30 01:45:00,
2013-08-29 20:50:00,79.2,75.0,29.98,North,32767,0.0,0.0,87,0.00,,,0.00,Wunderground v.1.15,2013-08-30 01:50:00,
2013-08-29 20:55:00,79.1,74.9,29.98,North,32767,0.0,0.0,87,0.00,,,0.00,Wunderground v.1.15,2013-08-30 01:55:00,
2013-08-29 21:00:00,79.0,74.8,29.98,North,32767,0.0,0.0,87,0.00,,,0.00,Wunderground v.1.15,2013-08-30 02:00:00,
2013-08-29 21:05:00,78.9,75.0,29.98,North,32767,0.0,0.0,88,0.00,,,0.00,Wunderground v.1.15,2013-08-30 02:05:00,
2013-08-29 21:10:00,78.9,75.0,29.99,North,32767,0.0,0.0,88,0.00,,,0.00,Wunderground v.1.15,2013-08-30 02:10:00,
2013-08-29 21:15:00,78.9,75.0,29.98,North,32767,0.0,0.0,88,0.00,,,0.00,Wunderground v.1.15,2013-08-30 02:15:00,
2013-08-29 21:20:00,78.9,75.0,29.98,North,32767,0.0,0.0,88,0.00,,,0.00,Wunderground v.1.15,2013-08-30 02:20:00,
2013-08-29 21:25:00,79.0,75.1,29.98,North,32767,0.0,0.0,88,0.00,,,0.00,Wunderground v.1.15,2013-08-30 02:25:00,
2013-08-29 21:30:00,79.0,75.5,29.98,North,32767,0.0,0.0,89,0.00,,,0.00,Wunderground v.1.15,2013-08-30 02:30:00,
2013-08-29 21:35:00,78.9,75.4,29.98,North,32767,0.0,0.0,89,0.00,,,0.00,Wunderground v.1.15,2013-08-30 02:35:00,
2013-08-29 21:40:00,78.9,75.4,29.98,North,32767,0.0,0.0,89,0.00,,,0.00,Wunderground v.1.15,2013-08-30 02:40:00,
2013-08-29 21:45:00,78.8,75.3,29.99,North,32767,0.0,0.0,89,0.00,,,0.00,Wunderground v.1.15,2013-08-30 02:45:00,
2013-08-29 21:50:00,78.7,75.2,29.99,North,32767,0.0,0.0,89,0.00,,,0.00,Wunderground v.1.15,2013-08-30 02:50:00,
2013-08-29 22:00:00,78.6,75.8,29.99,North,32767,0.0,0.0,91,0.00,,,0.00,Wunderground v.1.15,2013-08-30 03:00:00,
2013-08-29 22:05:00,78.5,75.7,29.99,North,32767,0.0,0.0,91,0.00,,,0.00,Wunderground v.1.15,2013-08-30 03:05:00,
2013-08-29 22:10:00,78.4,75.6,29.99,North,32767,0.0,0.0,91,0.00,,,0.00,Wunderground v.1.15,2013-08-30 03:10:00,
2013-08-29 22:15:00,78.2,75.4,29.99,North,32767,0.0,0.0,91,0.00,,,0.00,Wunderground v.1.15,2013-08-30 03:15:00,
2013-08-29 22:20:00,78.1,75.3,29.99,North,32767,0.0,0.0,91,0.00,,,0.00,Wunderground v.1.15,2013-08-30 03:20:00,
2013-08-29 22:25:00,78.0,75.5,29.99,North,32767,0.0,0.0,92,0.00,,,0.00,Wunderground v.1.15,2013-08-30 03:25:00,
2013-08-29 22:30:00,77.9,75.1,29.99,North,32767,0.0,0.0,91,0.00,,,0.00,Wunderground v.1.15,2013-08-30 03:30:00,
2013-08-29 22:35:00,77.7,74.9,29.99,North,32767,0.0,0.0,91,0.00,,,0.00,Wunderground v.1.15,2013-08-30 03:35:00,
2013-08-29 22:40:00,77.6,75.1,29.99,North,32767,0.0,0.0,92,0.00,,,0.00,Wunderground v.1.15,2013-08-30 03:40:00,
2013-08-29 22:45:00,77.5,75.0,29.99,North,32767,0.0,0.0,92,0.00,,,0.00,Wunderground v.1.15,2013-08-30 03:45:00,
2013-08-29 22:50:00,77.3,74.8,29.99,North,32767,0.0,0.0,92,0.00,,,0.00,Wunderground v.1.15,2013-08-30 03:50:00,
2013-08-29 22:55:00,77.2,74.7,29.99,North,32767,0.0,0.0,92,0.00,,,0.00,Wunderground v.1.15,2013-08-30 03:55:00,
2013-08-29 23:00:00,77.1,74.9,29.99,North,32767,0.0,0.0,93,0.00,,,0.00,Wunderground v.1.15,2013-08-30 04:00:00,
2013-08-29 23:05:00,76.9,74.7,29.99,North,32767,0.0,0.0,93,0.00,,,0.00,Wunderground v.1.15,2013-08-30 04:05:00,
2013-08-29 23:10:00,76.9,74.7,29.99,North,32767,0.0,0.0,93,0.00,,,0.00,Wunderground v.1.15,2013-08-30 04:10:00,
2013-08-29 23:15:00,76.8,74.9,29.99,North,32767,0.0,0.0,94,0.00,,,0.00,Wunderground v.1.15,2013-08-30 04:15:00,
2013-08-29 23:20:00,76.7,74.8,29.99,North,32767,0.0,0.0,94,0.00,,,0.00,Wunderground v.1.15,2013-08-30 04:20:00,
2013-08-29 23:30:00,76.5,74.6,29.99,North,32767,0.0,0.0,94,0.00,,,0.00,Wunderground v.1.15,2013-08-30 04:30:00,
2013-08-29 23:35:00,76.5,75.0,29.99,North,32767,0.0,0.0,95,0.00,,,0.00,Wunderground v.1.15,2013-08-30 04:35:00,
2013-08-29 23:40:00,76.4,74.5,29.99,North,32767,0.0,0.0,94,0.00,,,0.00,Wunderground v.1.15,2013-08-30 04:40:00,
2013-08-29 23:45:00,76.3,74.4,29.98,North,32767,0.0,0.0,94,0.00,,,0.00,Wunderground v.1.15,2013-08-30 04:45:00,
2013-08-29 23:50:00,76.2,74.3,29.98,North,32767,0.0,0.0,94,0.00,,,0.00,Wunderground v.1.15,2013-08-30 04:50:00,
2013-08-29 23:55:00,76.2,74.7,29.99,North,32767,0.0,0.0,95,0.00,,,0.00,Wunderground v.1.15,2013-08-30 04:55:00,